Tracking 19706 objects as of 16-Jun-2019
HD Live streaming from Space Station
objects crossing your sky now

WESTFORD NEEDLES

Track WESTFORD NEEDLES now!
10-day predictions
WESTFORD NEEDLES is classified as:


NORAD ID: 21660
Int'l Code: 1963-014FG
Perigee: 1,970.5 km
Apogee: 5,135.8 km
Inclination: 86.5 °
Period: 164.0 minutes
Semi major axis: 9924 km
RCS: 0.1099 m2 (medium)
Launch date: May 9, 1963
Source: United States (US)
Launch site: AIR FORCE WESTERN TEST RANGE (AFWTR)
aabbcc
Your satellite tracking list
Your tracking list is empty




NASA's NSSDC Master Catalog

Two Line Element Set (TLE):
1 21660U 63014FG  19167.24531354 -.00000979  00000-0 -11020+0 0  9990
2 21660  86.4533 242.2511 1594726 346.4583  55.9028  8.78133845843438
Source of the keplerian elements: AFSPC